| time (UTC) | temp F | wind direction | speed knots | gust knots | rain 1hr in | rain 24hr in | rain mn in | humidity % | barometer mb |
| 20260506110132 | 76 | 164 | 0.0 | 4.3 | 0.00 | 0.00 | 0.00 | 86 | 1008.8 |
| 20260506104629 | 76 | 162 | 1.7 | 2.6 | 0.00 | 0.00 | 0.00 | 86 | 1008.7 |
| 20260506103130 | 76 | 164 | 1.7 | 4.3 | 0.00 | 0.00 | 0.00 | 85 | 1008.8 |
| 20260506101628 | 76 | 176 | 2.6 | 6.1 | 0.00 | 0.00 | 0.00 | 84 | 1008.6 |
| 20260506100129 | 76 | 190 | 2.6 | 6.1 | 0.00 | 0.00 | 0.00 | 84 | 1008.5 |
| 20260506095325 | 77 | 210 | 3.5 | 7.8 | 0.00 | 0.00 | 0.00 | 84 | 1008.4 |
| 20260506093130 | 77 | 175 | 3.5 | 7.8 | 0.00 | 0.00 | 0.00 | 84 | 1008.2 |
| 20260506091627 | 77 | 200 | 2.6 | 6.1 | 0.00 | 0.00 | 0.00 | 84 | 1008.3 |
| 20260506090129 | 77 | 206 | 1.7 | 4.3 | 0.00 | 0.00 | 0.00 | 84 | 1008.3 |
| 20260506084627 | 77 | 172 | 2.6 | 7.8 | 0.00 | 0.00 | 0.00 | 83 | 1008.2 |
| 20260506083128 | 77 | 176 | 4.3 | 7.8 | 0.00 | 0.00 | 0.00 | 83 | 1008.2 |
| 20260506081626 | 77 | 169 | 3.5 | 7.8 | 0.00 | 0.00 | 0.00 | 83 | 1008.5 |
| 20260506080127 | 77 | 192 | 2.6 | 9.6 | 0.00 | 0.00 | 0.00 | 83 | 1008.6 |
| 20260506073126 | 77 | 209 | 2.6 | 7.8 | 0.00 | 0.00 | 0.00 | 83 | 1009.0 |
| 20260506071624 | 77 | 106 | 2.6 | 6.1 | 0.00 | 0.00 | 0.00 | 83 | 1009.0 |
| 20260506070126 | 77 | 190 | 1.7 | 6.1 | 0.00 | 0.00 | 0.00 | 83 | 1009.3 |
| 20260506061624 | 77 | 197 | 1.7 | 7.8 | 0.00 | 0.00 | 0.00 | 83 | 1009.4 |
| 20260506060124 | 77 | 173 | 4.3 | 9.6 | 0.00 | 0.00 | 0.00 | 83 | 1009.3 |
| 20260506050123 | 78 | 116 | 4.3 | 12.2 | 0.00 | 0.00 | 0.00 | 81 | 1009.4 |
| 20260506044621 | 78 | 207 | 4.3 | 9.6 | 0.00 | 0.00 | 0.00 | 81 | 1009.3 |
| 20260506043123 | 78 | 168 | 2.6 | 7.8 | 0.00 | 0.00 | 0.00 | 80 | 1009.3 |
| 20260506041621 | 78 | 180 | 3.5 | 9.6 | 0.00 | 0.00 | 0.00 | 80 | 1009.3 |
| 20260506040123 | 78 | 161 | 2.6 | 6.1 | 0.00 | 0.00 | 0.00 | 80 | 1009.0 |
| 20260506034620 | 79 | 166 | 2.6 | 4.3 | 0.00 | 0.00 | 0.00 | 79 | 1009.0 |
| 20260506033809 | 79 | 99 | 2.6 | 7.8 | 0.00 | 0.00 | 0.00 | 79 | 1008.8 |
| 20260506031620 | 79 | 190 | 1.7 | 6.1 | 0.00 | 0.00 | 0.00 | 78 | 1008.8 |
| 20260506030120 | 79 | 164 | 4.3 | 9.6 | 0.00 | 0.00 | 0.00 | 77 | 1008.7 |
| 20260506025314 | 79 | 226 | 4.3 | 9.6 | 0.00 | 0.00 | 0.00 | 77 | 1008.3 |
| 20260506023120 | 79 | 148 | 2.6 | 7.8 | 0.00 | 0.00 | 0.00 | 76 | 1008.1 |
| 20260506021618 | 80 | 195 | 2.6 | 7.8 | 0.00 | 0.00 | 0.00 | 75 | 1007.9 |
| 20260506020119 | 80 | 157 | 2.6 | 11.3 | 0.00 | 0.00 | 0.00 | 74 | 1007.7 |
| 20260506014617 | 80 | 176 | 6.1 | 11.3 | 0.00 | 0.00 | 0.00 | 74 | 1007.4 |
| 20260506013119 | 80 | 179 | 5.2 | 9.6 | 0.00 | 0.00 | 0.00 | 73 | 1007.3 |
| 20260506011617 | 80 | 114 | 3.5 | 6.1 | 0.00 | 0.00 | 0.00 | 73 | 1007.0 |
| 20260506010118 | 81 | 221 | 3.5 | 12.2 | 0.00 | 0.00 | 0.00 | 72 | 1006.8 |
| 20260506004616 | 81 | 166 | 5.2 | 11.3 | 0.00 | 0.00 | 0.00 | 72 | 1006.8 |
| 20260506003118 | 81 | 188 | 6.1 | 15.6 | 0.00 | 0.00 | 0.00 | 72 | 1006.7 |
| 20260506001616 | 81 | 183 | 2.6 | 11.3 | 0.00 | 0.00 | 0.00 | 72 | 1006.8 |
| 20260506000117 | 82 | 204 | 5.2 | 13.9 | 0.00 | 0.00 | 0.00 | 72 | 1006.6 |
| 20260505234615 | 82 | 164 | 5.2 | 12.2 | 0.00 | 0.00 | 0.00 | 72 | 1006.7 |
| 20260505233116 | 83 | 162 | 3.5 | 12.2 | 0.00 | 0.00 | 0.00 | 70 | 1006.5 |
| 20260505231615 | 83 | 196 | 4.3 | 11.3 | 0.00 | 0.00 | 0.00 | 69 | 1006.6 |
| 20260505230117 | 84 | 135 | 3.5 | 12.2 | 0.00 | 0.00 | 0.00 | 68 | 1006.6 |
| 20260505225323 | 84 | 247 | 4.3 | 15.6 | 0.00 | 0.00 | 0.00 | 68 | 1006.5 |
| 20260505223115 | 84 | 188 | 5.2 | 17.4 | 0.00 | 0.00 | 0.00 | 67 | 1006.5 |
| 20260505221613 | 85 | 200 | 1.7 | 12.2 | 0.00 | 0.00 | 0.00 | 68 | 1006.4 |
| 20260505220106 | 85 | 147 | 4.3 | 12.2 | 0.00 | 0.00 | 0.00 | 67 | 1006.6 |
| 20260505214604 | 85 | 209 | 3.5 | 11.3 | 0.00 | 0.00 | 0.00 | 68 | 1007.0 |
| 20260505213103 | 84 | 227 | 4.3 | 12.2 | 0.00 | 0.00 | 0.00 | 67 | 1007.1 |
| 20260505211605 | 84 | 204 | 2.6 | 11.3 | 0.00 | 0.00 | 0.00 | 68 | 1007.2 |
| 20260505210752 | 84 | 128 | 6.1 | 12.2 | 0.00 | 0.00 | 0.00 | 68 | 1007.4 |
| 20260505204605 | 85 | 171 | 4.3 | 9.6 | 0.00 | 0.00 | 0.00 | 69 | 1007.7 |
| 20260505203103 | 85 | 213 | 5.2 | 11.3 | 0.00 | 0.00 | 0.00 | 67 | 1007.9 |
| 20260505201603 | 85 | 138 | 1.7 | 17.4 | 0.00 | 0.00 | 0.00 | 66 | 1008.0 |
| 20260505200103 | 85 | 210 | 8.7 | 13.9 | 0.00 | 0.00 | 0.00 | 67 | 1008.2 |
| 20260505194603 | 85 | 180 | 5.2 | 11.3 | 0.00 | 0.00 | 0.00 | 68 | 1008.3 |
| 20260505193103 | 82 | 188 | 2.6 | 12.2 | 0.00 | 0.00 | 0.00 | 72 | 1008.6 |
| 20260505191603 | 83 | 217 | 4.3 | 12.2 | 0.00 | 0.00 | 0.00 | 69 | 1008.6 |
| 20260505190104 | 83 | 168 | 2.6 | 11.3 | 0.00 | 0.00 | 0.00 | 71 | 1008.7 |
| 20260505185308 | 82 | 178 | 4.3 | 11.3 | 0.00 | 0.00 | 0.00 | 71 | 1008.9 |
| 20260505183103 | 81 | 161 | 2.6 | 12.2 | 0.00 | 0.00 | 0.00 | 73 | 1009.0 |
| 20260505181604 | 81 | 185 | 6.1 | 11.3 | 0.00 | 0.00 | 0.00 | 72 | 1009.1 |
| 20260505180103 | 82 | 178 | 6.1 | 13.9 | 0.00 | 0.00 | 0.00 | 72 | 1009.1 |
| 20260505174604 | 81 | 197 | 5.2 | 17.4 | 0.00 | 0.00 | 0.00 | 72 | 1009.2 |
| 20260505173103 | 80 | 216 | 5.2 | 12.2 | 0.00 | 0.00 | 0.00 | 75 | 1009.5 |
| 20260505171603 | 79 | 203 | 3.5 | 12.2 | 0.00 | 0.00 | 0.00 | 76 | 1009.6 |
| 20260505170104 | 79 | 193 | 4.3 | 9.6 | 0.00 | 0.00 | 0.00 | 77 | 1009.6 |
| 20260505164603 | 79 | 224 | 4.3 | 9.6 | 0.00 | 0.00 | 0.00 | 76 | 1009.5 |
| 20260505163103 | 79 | 196 | 4.3 | 7.8 | 0.00 | 0.00 | 0.00 | 76 | 1009.8 |
| 20260505161603 | 79 | 216 | 2.6 | 11.3 | 0.00 | 0.00 | 0.00 | 76 | 1009.7 |
| 20260505160104 | 78 | 188 | 5.2 | 9.6 | 0.00 | 0.00 | 0.00 | 77 | 1009.6 |
| 20260505151603 | 78 | 165 | 4.3 | 9.6 | 0.00 | 0.00 | 0.00 | 78 | 1009.4 |
| 20260505150104 | 77 | 179 | 7.0 | 12.2 | 0.00 | 0.00 | 0.00 | 78 | 1009.4 |
| 20260505130104 | 74 | 127 | 4.3 | 11.3 | 0.00 | 0.00 | 0.00 | 82 | 1009.2 |
| 20260505124602 | 74 | 175 | 3.5 | 11.3 | 0.00 | 0.00 | 0.00 | 83 | 1008.4 |
| 20260505124458 | 73 | 161 | 4.3 | 9.6 | 0.00 | 0.00 | 0.00 | 83 | 1008.8 |
| 20260505121601 | 73 | 195 | 1.7 | 7.8 | 0.00 | 0.00 | 0.00 | 84 | 1008.8 |
| 20260505114601 | 72 | 178 | 4.3 | 7.8 | 0.00 | 0.00 | 0.00 | 83 | 1008.4 |
| 20260505114450 | 72 | 178 | 1.7 | 6.1 | 0.00 | 0.00 | 0.00 | 83 | 1008.5 |
| 20260505111600 | 72 | 159 | 3.5 | 7.8 | 0.00 | 0.00 | 0.00 | 84 | 1008.5 |